Theta_e
303 296 292 297 300 299 296 298 297 300 300 298 300 300 303 307 307 307 307 308 309 310 313 316 317 320 324 329 330 330 330 330 332 334 334 329 327 329 329 330 330 331 331 329
296 290 295 298 299 298 295 293 293 297 297 296 296 296 300 301 302 304 304 306 308 310 312 314 316 317 318 318 319 322 326 328 330 332 334 335 331 332 330 330 330 332 334 332
290 291 296 296 297 295 295 292 293 291 295 296 293 291 293 297 299 300 301 303 304 304 306 308 310 313 315 317 319 319 320 322 325 329 330 333 334 333 331 332 331 330 333 334
290 295 292 293 293 295 289 295 295 293 291 288 293 285 291 293 294 296 298 300 301 302 304 305 307 307 309 313 317 318 320 321 325 327 326 328 328 326 329 331 332 333 333 333
288 290 291 290 291 295 289 294 294 293 290 289 290 286 291 294 291 294 297 300 301 302 302 302 304 305 307 309 313 315 316 318 323 327 326 326 327 328 329 330 330 331 332 332
292 296 294 292 294 295 297 294 293 292 289 282 286 287 288 293 292 295 297 297 299 302 303 303 304 306 303 307 309 312 311 311 316 318 322 324 325 325 326 327 326 327 329 329
288 290 293 296 291 295 294 289 282 281 281 279 287 285 288 293 295 296 296 297 300 301 301 302 303 307 305 304 309 311 312 311 312 315 318 321 324 325 326 326 325 326 326 326
284 282 290 295 292 289 290 288 283 277 279 282 285 282 288 296 297 297 298 299 298 299 301 302 305 306 306 308 311 313 316 316 318 319 321 324 325 325 325 326 326 326 327 324
286 286 293 294 296 294 289 286 290 283 281 281 285 289 292 296 296 297 296 295 296 298 301 303 304 305 306 307 308 310 313 317 321 322 323 323 324 323 321 317 315 313 314 314
290 284 289 292 294 295 292 294 284 285 278 277 283 285 286 291 293 296 294 296 297 298 301 303 303 304 304 305 305 307 307 308 309 310 310 309 309 310 310 311 310 311 310 309
292 288 285 290 288 288 288 288 289 289 285 279 277 282 292 293 295 295 296 295 297 297 300 302 301 302 303 304 304 305 306 306 306 308 307 307 307 308 308 308 308 307 307 306
293 289 284 285 291 293 292 289 289 283 281 284 283 283 292 294 294 295 295 295 297 298 301 303 301 301 302 303 303 304 305 306 307 306 306 306 306 306 306 305 305 305 305 305
293 286 281 282 287 290 287 290 291 290 289 283 281 283 293 293 293 295 295 296 297 298 300 302 302 300 301 302 303 303 304 305 306 305 305 305 304 304 304 303 303 302 302 301
295 288 284 280 283 288 284 287 289 288 283 284 285 287 291 293 293 296 297 295 297 297 298 299 301 303 301 301 302 302 303 304 305 304 304 304 304 303 303 302 301 300 299 299
292 283 287 288 288 288 287 287 288 286 287 283 286 287 291 293 295 297 298 298 297 297 298 301 301 302 302 301 301 302 302 303 304 303 303 303 303 303 301 300 299 299 298 297
292 284 286 283 287 288 285 288 288 287 287 288 288 288 295 297 297 297 297 298 298 298 300 300 300 300 299 300 300 301 301 302 303 302 302 302 302 300 299 299 298 297 296 296
288 285 283 278 284 284 280 284 286 287 289 288 284 290 295 294 294 296 297 298 298 299 301 300 301 302 302 301 300 299 301 302 301 301 301 301 300 298 298 297 295 294 294 294
285 284 283 279 279 272 284 290 290 287 289 291 291 293 294 295 296 298 299 298 299 300 300 301 301 302 303 303 302 301 302 301 300 300 300 299 298 297 295 294 293 293 293 291
289 285 280 276 277 280 282 286 286 285 285 291 291 293 294 296 296 296 299 300 300 301 302 302 303 303 303 303 303 301 300 299 298 297 297 297 296 294 293 292 291 292 291 290
287 286 281 279 273 272 282 288 291 290 280 291 291 291 292 294 289 292 299 300 300 302 302 302 303 303 302 301 301 298 295 295 295 295 295 296 295 294 293 292 290 289 289 288
278 279 276 278 276 279 286 288 291 278 281 291 292 292 292 291 293 296 298 298 299 300 300 301 300 299 299 296 295 293 294 294 294 293 292 292 292 290 292 290 288 287 287 285
278 276 276 277 274 272 289 288 282 287 291 291 291 294 294 295 296 296 297 297 297 297 298 297 294 293 293 293 292 291 291 293 292 291 290 288 287 287 287 286 285 285 285 284
277 282 280 281 280 289 290 289 292 293 291 292 293 294 295 294 294 295 296 296 296 295 292 291 291 290 290 290 289 288 289 289 288 286 284 285 284 284 285 285 284 284 284 284
283 286 281 282 285 286 289 290 290 291 290 292 292 293 293 293 294 292 292 291 291 291 290 288 286 286 287 286 284 284 284 284 283 284 282 282 282 283 283 283 284 284 284 284
284 284 282 282 284 286 288 289 290 291 292 292 293 293 294 294 293 292 291 289 290 288 285 284 284 284 283 282 281 279 279 280 282 281 281 282 282 282 282 282 282 282 283 283
285 282 280 279 285 285 286 290 292 291 291 293 292 291 291 291 292 292 288 286 283 283 281 281 281 280 280 278 276 274 274 278 280 280 280 280 280 280 279 279 279 280 280 280
Wind_Speed
9 7 11 16 16 13 8 12 14 6 7 3 11 15 14 13 13 12 13 13 13 15 15 15 14 13 14 14 15 16 15 15 12 10 10 9 10 9 8 9 14 11 10 11
6 12 10 4 10 10 10 11 10 2 3 4 10 15 14 14 14 17 17 18 18 18 18 16 15 13 14 16 16 16 16 15 13 9 9 9 10 10 10 8 10 12 15 14
10 2 7 9 8 11 12 13 14 9 1 5 8 18 20 16 17 18 17 18 18 19 17 15 14 14 14 15 14 14 15 14 14 13 9 8 8 7 7 9 9 11 15 13
8 7 9 9 11 10 10 7 11 9 6 10 2 8 3 6 10 11 13 14 16 15 14 12 11 13 15 13 11 11 12 13 11 13 12 14 10 10 8 7 7 7 12 12
5 10 10 11 7 10 2 3 6 6 6 7 9 8 11 7 8 11 13 10 8 6 6 8 8 10 12 10 10 10 11 10 9 10 12 10 11 7 6 5 7 7 7 10
5 2 6 6 3 9 9 10 7 1 2 5 11 12 9 13 12 11 3 4 5 5 7 7 7 6 8 7 7 6 10 12 8 10 12 11 10 9 6 5 5 5 5 5
1 6 4 5 9 5 9 10 3 3 4 6 2 8 14 17 11 6 4 4 6 8 8 7 7 6 4 5 6 7 9 9 9 11 11 11 10 9 8 7 6 6 5 5
9 7 12 11 8 7 16 11 4 6 8 3 3 8 4 6 9 7 5 7 8 9 7 6 6 5 3 2 3 4 5 5 7 8 8 7 8 6 6 6 5 5 4 2
7 6 10 10 4 10 12 9 4 0 2 3 8 10 7 10 12 4 4 5 5 7 6 6 5 4 1 2 2 3 4 5 6 7 6 6 6 5 4 4 3 3 3 3
2 4 0 6 2 7 5 9 5 4 5 7 8 10 9 2 10 12 9 3 2 4 7 5 4 3 1 1 2 2 3 4 6 6 6 5 5 5 5 5 4 3 4 4
5 4 4 7 10 11 7 9 7 4 7 4 7 7 7 3 8 8 6 4 8 7 5 4 3 2 3 2 1 2 2 3 4 4 5 6 4 4 5 5 5 4 3 3
14 3 6 8 4 5 12 13 16 6 8 6 6 10 3 4 5 4 3 2 5 5 4 2 4 3 3 4 4 5 4 4 4 4 5 5 5 4 4 4 5 4 3 2
11 5 5 4 6 4 8 14 14 16 11 12 9 7 4 4 3 8 5 1 4 1 2 3 6 7 7 6 6 6 7 6 5 5 5 5 5 5 5 5 4 4 3 2
11 6 10 10 3 5 8 15 16 15 9 16 15 26 17 11 5 7 7 2 6 6 8 8 7 7 7 7 8 8 8 7 7 6 6 6 7 7 6 5 5 4 4 3
7 6 11 15 15 5 7 6 10 16 18 19 22 24 20 17 16 13 13 10 9 11 14 11 9 7 8 7 9 9 8 8 7 7 7 8 6 5 5 5 5 4 5 4
5 4 9 12 13 14 16 16 15 17 19 17 23 25 21 19 18 18 16 13 13 15 15 12 9 9 8 8 11 11 10 10 9 9 9 7 6 5 6 6 5 5 5 5
6 3 3 11 12 14 13 18 22 21 22 20 22 22 20 19 16 17 16 15 15 17 13 12 11 10 9 9 10 11 11 8 9 10 9 8 8 8 8 6 6 6 6 5
7 4 3 9 1 13 8 9 15 23 24 21 21 22 22 23 21 17 13 13 16 14 13 12 12 13 11 8 7 9 7 8 9 9 9 7 8 9 7 7 7 6 4 5
8 5 6 7 12 13 13 10 12 9 14 15 20 21 22 24 23 18 15 16 15 17 16 13 13 12 11 10 7 5 5 5 6 8 10 9 9 9 8 9 8 5 5 4
14 12 6 8 10 17 14 15 4 4 10 14 16 19 20 17 13 12 13 11 9 10 11 12 10 9 4 7 5 4 6 7 8 8 10 7 7 10 11 10 7 4 2 3
6 5 15 13 12 7 11 17 4 11 9 9 5 10 14 12 12 13 13 14 12 10 9 6 5 6 4 3 3 7 6 8 8 5 5 6 6 7 7 5 4 4 4 3
13 10 8 8 8 14 10 9 17 14 15 15 15 14 16 16 11 10 12 9 8 9 8 5 6 5 3 3 4 6 8 5 4 5 5 5 5 4 3 4 4 3 2 2
13 12 10 8 6 3 5 9 9 9 12 15 16 14 14 15 15 12 13 8 6 5 3 4 6 7 5 4 3 5 4 3 3 1 2 4 6 6 5 5 4 2 3 2
11 12 12 12 16 18 17 17 18 20 18 17 20 19 20 19 15 8 7 7 6 6 3 1 2 5 3 3 2 3 5 3 1 2 3 3 2 4 4 4 4 3 3 2
10 9 15 15 21 15 17 18 19 18 16 9 13 11 13 15 15 9 9 5 5 3 5 2 3 4 3 4 4 5 6 4 2 4 4 4 3 3 3 1 0 1 1 1
10 17 12 16 17 12 16 14 9 9 8 9 7 7 8 11 17 11 4 1 1 3 3 5 5 5 4 3 4 5 5 4 3 3 2 3 3 3 2 2 2 3 6 6
Wind_Direction
190 207 208 212 221 233 288 238 245 211 90 261 237 250 247 249 242 251 255 249 246 248 250 248 243 237 227 229 225 221 219 214 209 203 205 205 219 221 220 219 225 217 216 212
172 227 221 277 231 230 239 237 244 269 173 248 271 262 261 256 252 245 248 254 253 254 251 241 234 229 233 235 228 232 229 224 211 215 207 207 209 221 222 221 217 225 218 205
186 63 152 190 187 206 228 243 243 259 234 226 291 267 251 241 250 252 248 248 257 257 258 255 252 243 240 239 234 228 227 223 219 210 214 214 225 217 212 212 207 213 234 229
228 136 183 192 203 203 211 231 248 233 254 262 173 285 184 198 229 229 239 238 243 246 250 257 262 260 258 255 253 242 231 226 217 209 213 211 214 217 217 222 213 209 210 221
157 183 174 188 200 201 131 144 213 231 252 299 236 265 254 242 244 243 244 229 253 269 259 250 247 262 264 264 239 239 238 221 212 208 214 214 217 227 231 218 221 210 204 218
88 7 205 204 143 188 140 123 107 145 221 244 232 229 267 233 215 255 262 168 171 282 279 278 268 274 269 251 249 246 239 234 218 219 218 225 224 227 225 205 211 213 208 201
180 172 155 189 144 165 193 169 154 205 205 240 14 217 248 300 285 258 265 214 311 327 310 299 302 303 272 229 221 217 218 225 211 215 217 214 219 220 218 210 204 208 195 199
179 200 187 178 206 180 196 192 206 225 221 230 137 228 235 285 299 276 252 287 321 309 316 306 322 322 303 214 220 204 202 189 193 198 201 199 204 211 210 207 211 201 194 133
207 187 170 187 153 176 185 219 337 305 80 275 236 240 254 258 276 224 160 178 264 300 309 317 337 335 322 179 152 157 149 152 163 165 163 173 172 169 146 106 92 106 100 102
201 143 225 163 239 233 233 164 184 225 225 241 246 247 260 196 245 247 148 131 20 2 350 357 350 354 23 23 75 91 124 127 129 133 131 132 126 126 126 127 118 109 107 120
218 262 115 165 208 193 187 202 227 261 222 254 269 260 3 3 241 264 66 15 356 14 355 335 323 341 352 340 262 198 187 149 148 149 138 133 132 134 131 129 125 120 136 145
207 271 190 197 107 283 246 219 215 217 194 238 295 264 174 78 71 48 25 355 346 343 356 308 257 249 229 233 234 232 218 203 185 177 166 150 145 146 155 149 146 147 160 134
171 214 178 200 193 211 226 224 242 244 272 256 245 245 61 86 273 283 312 232 197 187 4 296 258 252 242 232 228 230 224 217 199 189 196 177 172 181 187 177 169 155 151 163
175 189 222 225 115 135 206 223 222 229 236 249 247 267 261 259 238 274 292 216 242 264 300 304 288 255 246 241 242 229 226 217 203 206 207 205 202 200 195 181 181 169 172 198
197 225 232 254 284 269 277 252 217 226 236 243 256 264 268 271 275 284 293 292 254 265 264 281 294 256 252 239 240 235 228 211 208 207 213 218 209 200 196 179 183 179 189 207
219 244 237 253 260 261 265 266 262 252 249 253 262 264 271 274 283 281 283 275 273 271 281 293 293 277 263 248 244 236 221 216 205 214 220 213 196 194 207 205 185 185 201 204
194 196 216 253 251 267 260 232 251 260 256 253 257 266 281 279 281 275 277 279 270 273 276 274 272 268 261 239 229 228 227 216 206 215 219 210 199 205 203 196 191 201 208 199
184 195 166 263 160 245 242 274 251 242 250 257 262 266 270 282 284 282 285 273 271 281 277 268 270 275 271 250 228 230 223 214 204 213 220 210 201 209 190 187 204 203 198 208
198 187 231 242 244 270 272 251 226 236 262 261 253 264 271 279 289 289 276 269 269 271 274 276 278 278 271 282 287 236 222 209 212 220 221 215 203 206 195 201 201 197 203 208
221 219 215 227 250 257 247 250 312 293 259 264 263 268 278 288 280 287 299 307 302 276 261 260 272 279 270 262 279 246 226 231 229 217 225 212 199 209 208 201 180 153 170 211
183 210 224 230 243 242 249 278 222 238 263 278 302 281 268 263 268 290 296 299 298 282 290 303 284 266 278 278 252 247 235 236 237 235 219 206 200 207 207 162 131 132 162 187
185 185 205 222 235 247 224 239 216 245 259 272 278 257 264 273 275 259 260 280 292 298 290 291 298 278 265 241 235 263 258 269 246 210 201 177 150 139 119 124 107 112 153 212
239 222 231 219 225 156 263 276 298 305 295 290 282 277 270 280 271 273 269 257 256 247 252 278 279 302 314 298 268 279 312 326 283 218 174 150 135 127 120 127 129 151 178 223
236 236 251 258 248 253 266 279 283 284 281 281 278 270 280 279 269 263 279 287 261 273 239 199 288 293 308 22 337 307 335 322 173 133 88 67 112 117 120 133 146 169 196 223
238 240 244 255 257 261 260 261 267 271 272 273 284 291 275 265 268 245 256 248 240 283 319 12 315 310 323 1 23 18 4 352 41 100 105 103 91 66 93 62 91 203 237 261
227 235 228 240 252 249 260 264 288 279 256 244 238 269 254 244 262 271 247 232 347 348 358 328 341 344 359 28 49 35 17 21 47 79 90 85 109 99 72 25 334 223 255 270